[[{"header":{"parameterUnit":"m.s-1","parameterCategory":1,"la1":30.2991,"la2":30.254,"lo1":-89.0895,"lo2":-89.0444,"dy":0.0017,"dx":0.0017,"nx":28,"ny":28,"refTime":"2024-02-24T03:00:00:Z","depth":0,"parameterNumber":2,"parameterNumberName":"U-component_of_WINDS"},"data":[0,0,0,0,0,0,0,0,0,0,0,0,0,0,0,0,0,0,0,0,0,0,0,0,0,0,0,0,0,0,0,0,0,0,0,0,0,0,0,0,0,0,0,0,0,0,0,0,0,0,0,0,0,0,0,0,0,0,-1.5357,-1.5357,0,-1.5335,-1.5335,-1.5335,-1.5303,-1.5303,-1.5302,-1.5302,-1.5279,-1.5278,-1.5278,0,0,0,0,0,0,0,0,0,0,0,0,0,-1.5373,-1.5373,-1.5357,-1.5357,-1.5357,-1.5335,-1.5335,-1.5335,-1.5303,-1.5303,-1.5302,-1.5301,-1.5279,-1.5279,-1.5278,0,0,0,0,0,0,0,0,0,0,0,0,0,-1.536,-1.5373,-1.5357,-1.5339,-1.5337,-1.5335,-1.5335,-1.5335,-1.5304,-1.5303,-1.5302,-1.5301,-1.5279,-1.5279,-1.5278,-1.5294,0,0,-1.5278,-1.5278,0,0,0,0,0,0,0,0,-1.5361,-1.536,-1.5342,-1.534,-1.5338,-1.5321,-1.5332,-1.5321,-1.5304,-1.5316,-1.5302,-1.5301,-1.5293,-1.5292,-1.529,-1.5293,-1.5292,-1.5278,-1.5278,-1.5278,-1.5278,0,0,0,0,0,0,0,-1.5362,-1.536,-1.5349,-1.5341,-1.5339,-1.5332,-1.5329,-1.533,-1.531,-1.5315,-1.5313,-1.5311,-1.5292,-1.529,-1.5289,-1.5291,-1.5278,-1.5278,-1.5278,-1.5278,-1.5306,-1.5307,0,0,0,0,0,0,-1.5365,-1.5361,-1.5349,-1.5348,-1.5348,-1.5332,-1.5329,-1.5327,-1.5309,-1.5306,-1.5311,-1.5309,-1.5291,-1.5289,-1.5288,-1.5304,-1.5278,-1.5278,-1.5277,-1.5305,-1.5306,-1.5307,0,0,0,0,0,0,-1.5366,-1.5365,-1.535,-1.5354,-1.5352,-1.5332,-1.5331,-1.5327,-1.5325,-1.5307,-1.5303,-1.5312,-1.529,-1.5288,-1.5292,-1.5303,-1.5277,-1.5277,-1.5304,-1.5305,-1.5306,-1.5336,0,0,0,0,0,0,-1.5367,-1.5365,-1.537,-1.5354,-1.5352,-1.5355,-1.5332,-1.5328,-1.5325,-1.5322,-1.5307,-1.5303,-1.5289,-1.5293,-1.5292,-1.5302,-1.5277,-1.5303,-1.5304,-1.5306,-1.5334,-1.5339,-1.5342,0,0,0,0,0,-1.5367,-1.538,-1.5371,-1.5369,-1.5358,-1.5356,-1.5354,-1.5337,-1.5326,-1.5331,-1.532,-1.5304,-1.5302,-1.5294,-1.5293,-1.5302,-1.5302,-1.5304,-1.5306,-1.5333,-1.5338,-1.5342,0,0,0,0,0,0,-1.5396,-1.5377,-1.5367,-1.5375,-1.5367,-1.535,-1.5356,-1.5343,-1.5339,-1.5336,-1.5315,-1.5312,-1.5319,-1.5312,-1.5302,-1.5316,-1.53,-1.5302,-1.5321,-1.5325,-1.5329,-1.533,-1.5277,0,0,0,0,0,-1.5404,-1.5404,-1.5387,-1.5395,-1.5392,-1.5375,-1.5374,-1.5362,-1.5353,-1.5349,-1.5338,-1.533,-1.5328,-1.5327,-1.5323,-1.5334,-1.533,-1.5341,-1.5345,-1.5348,-1.5349,-1.5354,-1.5358,-1.5313,-1.5313,-1.5313,0,0,-1.5419,-1.5409,-1.5409,-1.5401,-1.5394,-1.5394,-1.5372,-1.5374,-1.5374,-1.5349,-1.5352,-1.5344,-1.5334,-1.5342,-1.5345,-1.5336,-1.5361,-1.535,-1.5353,-1.5352,-1.5356,-1.536,-1.5364,-1.5314,-1.5314,-1.5314,0,0,-1.5446,-1.5439,-1.5444,-1.5438,-1.5428,-1.5417,-1.5418,-1.5404,-1.5397,-1.5401,-1.5383,-1.5383,-1.5379,-1.5373,-1.5369,-1.5396,-1.5381,-1.5396,-1.5415,-1.542,-1.5424,-1.5427,-1.5435,-1.5439,-1.5398,-1.5398,-1.5398,0,-1.5466,-1.5465,-1.5449,-1.5451,-1.5448,-1.5428,-1.5433,-1.5428,-1.5417,-1.5415,-1.5406,-1.5402,-1.5394,-1.5399,-1.5406,-1.5404,-1.5405,-1.5396,-1.5425,-1.5427,-1.543,-1.5438,-1.5441,-1.5399,-1.5399,-1.5399,-1.5399,0,-1.549,-1.549,-1.5496,-1.5486,-1.5484,-1.5488,-1.5473,-1.5473,-1.5462,-1.5452,-1.5456,-1.5446,-1.544,-1.5441,-1.543,-1.5445,-1.544,-1.5428,-1.5411,-1.5436,-1.5443,-1.5446,-1.5402,-1.5401,-1.5401,-1.54,0,0,-1.5532,-1.5515,-1.5517,-1.5512,-1.55,-1.55,-1.5504,-1.5499,-1.5499,-1.5493,-1.5495,-1.5494,-1.5483,-1.5479,-1.5468,-1.5472,-1.5493,-1.546,-1.5459,-1.5465,-1.5509,-1.5516,-1.552,-1.5485,-1.5486,-1.5486,-1.5509,0,-1.5555,-1.556,-1.5546,-1.5554,-1.5554,-1.5536,-1.5539,-1.5532,-1.5524,-1.5523,-1.5514,-1.5512,-1.5499,-1.5496,-1.55,-1.549,-1.5502,-1.5489,-1.5486,-1.5486,-1.5486,-1.5524,-1.5531,-1.5553,-1.5512,-1.5512,-1.5512,0,-1.5582,-1.5578,-1.5586,-1.5574,-1.5574,-1.5577,-1.5571,-1.5571,-1.5563,-1.5557,-1.5553,-1.5541,-1.5544,-1.5529,-1.5533,-1.5524,-1.5523,-1.5518,-1.5519,-1.5516,-1.5499,-1.552,-1.556,-1.5562,-1.5517,-1.5516,-1.5516,0,-1.561,-1.5607,-1.5611,-1.5608,-1.5595,-1.5597,-1.5592,-1.5584,-1.5582,-1.5578,-1.5576,-1.5573,-1.557,-1.5568,-1.5555,-1.5545,-1.556,-1.5544,-1.5554,-1.5554,-1.5555,-1.5555,-1.5594,-1.5558,-1.5558,-1.5558,-1.5558,0,-1.5636,-1.5642,-1.5624,-1.5626,-1.5632,-1.5617,-1.5623,-1.5616,-1.5609,-1.561,-1.5595,-1.5596,-1.558,-1.5579,-1.5569,-1.5573,-1.5573,-1.5567,-1.5564,-1.5567,-1.5568,-1.5564,-1.5562,-1.5559,-1.5559,-1.5559,-1.5559,0,-1.5667,-1.5656,-1.5659,-1.5647,-1.5644,-1.5648,-1.5638,-1.564,-1.5632,-1.5633,-1.5632,-1.5619,-1.5618,-1.5605,-1.5601,-1.5595,-1.5602,-1.5597,-1.5604,-1.5602,-1.5612,-1.561,-1.5648,-1.5651,-1.5616,-1.5616,-1.5616,0,-1.5684,-1.5687,-1.5676,-1.5675,-1.5671,-1.567,-1.5669,-1.5655,-1.5654,-1.5646,-1.5649,-1.5647,-1.5644,-1.5643,-1.5633,-1.563,-1.5624,-1.5637,-1.5623,-1.5626,-1.5622,-1.5621,-1.5621,-1.5639,-1.564,-1.564,-1.564,0,-1.5713,-1.5708,-1.5705,-1.5702,-1.57,-1.5697,-1.5692,-1.5693,-1.5678,-1.5677,-1.5676,-1.5674,-1.5671,-1.5668,-1.5664,-1.5659,-1.5647,-1.5646,-1.5647,-1.5649,-1.5653,-1.5649,-1.561,-1.5644,-1.5644,-1.5643,-1.5643,-1.5643,-1.5736,-1.5739,-1.5731,-1.5729,-1.5725,-1.5721,-1.5722,-1.5714,-1.5713,-1.5709,-1.5702,-1.5701,-1.5695,-1.5688,-1.5684,-1.5684,-1.5676,-1.5679,-1.568,-1.568,-1.5681,-1.5655,-1.5683,-1.5683,-1.5683,-1.5683,-1.5683,0,-1.5764,-1.5758,-1.5757,-1.5751,-1.575,-1.5741,-1.5736,-1.5735,-1.5735,-1.573,-1.5728,-1.5727,-1.5725,-1.5716,-1.5713,-1.5715,-1.5709,-1.5714,-1.5713,-1.5712,-1.5689,-1.5686,-1.5719,-1.5719,-1.5719,-1.5719,-1.5719,-1.5719,-1.5778,-1.5781,-1.5775,-1.5776,-1.5771,-1.577,-1.5768,-1.5765,-1.5761,-1.576,-1.5758,-1.5753,-1.5746,-1.5743,-1.5741,-1.5738,-1.5737,-1.5744,-1.5739,-1.5717,-1.5713,-1.571,-1.5708,-1.5744,-1.5744,-1.5762,-1.5762,-1.5762]},{"header":{"parameterUnit":"m.s-1","parameterCategory":1,"la1":30.2991,"la2":30.254,"lo1":-89.0895,"lo2":-89.0444,"dy":0.0017,"dx":0.0017,"nx":28,"ny":28,"refTime":"2024-02-24T03:00:00:Z","depth":0,"parameterNumber":3,"parameterNumberName":"V-component_of_WINDS"},"data":[0,0,0,0,0,0,0,0,0,0,0,0,0,0,0,0,0,0,0,0,0,0,0,0,0,0,0,0,0,0,0,0,0,0,0,0,0,0,0,0,0,0,0,0,0,0,0,0,0,0,0,0,0,0,0,0,0,0,2.957,2.957,0,2.9581,2.9581,2.9581,2.9647,2.9649,2.965,2.9652,2.9659,2.9658,2.9656,0,0,0,0,0,0,0,0,0,0,0,0,0,2.9604,2.9603,2.957,2.957,2.957,2.9581,2.9581,2.9581,2.9647,2.9649,2.9651,2.9652,2.9659,2.9658,2.9656,0,0,0,0,0,0,0,0,0,0,0,0,0,2.9599,2.9603,2.957,2.9604,2.9608,2.9581,2.9581,2.9581,2.9646,2.9649,2.9651,2.9653,2.966,2.9658,2.9656,2.9596,0,0,2.965,2.9649,0,0,0,0,0,0,0,0,2.9599,2.9598,2.9599,2.9602,2.9605,2.9615,2.9596,2.9586,2.9646,2.9631,2.9652,2.9655,2.9642,2.9642,2.9638,2.9596,2.9597,2.965,2.9649,2.9648,2.9647,0,0,0,0,0,0,0,2.96,2.9598,2.9574,2.9599,2.9603,2.9619,2.9621,2.9594,2.9623,2.9633,2.9638,2.9638,2.9644,2.964,2.9639,2.9597,2.965,2.9648,2.9647,2.9646,2.9508,2.9505,0,0,0,0,0,0,2.9596,2.9598,2.9574,2.9574,2.9608,2.9616,2.9618,2.9609,2.9624,2.9628,2.9636,2.9641,2.9642,2.9641,2.964,2.9572,2.9648,2.9646,2.9645,2.951,2.9507,2.9504,0,0,0,0,0,0,2.9596,2.9593,2.9573,2.9587,2.9586,2.9613,2.9602,2.9608,2.9604,2.9626,2.9631,2.9627,2.9644,2.9642,2.9607,2.9573,2.9645,2.9644,2.9513,2.9509,2.9506,2.9434,0,0,0,0,0,0,2.9597,2.9593,2.957,2.9586,2.9585,2.9541,2.96,2.9607,2.9601,2.9608,2.9619,2.9623,2.9646,2.961,2.9605,2.9571,2.9642,2.9516,2.9511,2.9507,2.9439,2.9428,2.9418,0,0,0,0,0,2.9598,2.9548,2.9569,2.9566,2.9558,2.9539,2.9538,2.9567,2.9598,2.9576,2.959,2.9622,2.9577,2.9605,2.9601,2.9566,2.9519,2.9513,2.9507,2.9444,2.943,2.9418,0,0,0,0,0,0,2.9526,2.9551,2.9574,2.9529,2.9531,2.955,2.9523,2.9551,2.9544,2.955,2.9585,2.9587,2.9547,2.9553,2.9584,2.9509,2.9553,2.9547,2.9507,2.9494,2.9484,2.9483,2.964,0,0,0,0,0,2.9505,2.9488,2.9511,2.9468,2.9469,2.9495,2.9488,2.951,2.9514,2.9515,2.9526,2.9528,2.9514,2.9504,2.9493,2.9441,2.9444,2.9414,2.9404,2.9395,2.9389,2.9363,2.9351,2.9486,2.9486,2.9486,0,0,2.9461,2.9473,2.9459,2.9454,2.9459,2.944,2.9496,2.9473,2.946,2.9511,2.9479,2.9488,2.9492,2.9448,2.9429,2.9452,2.9353,2.9388,2.9381,2.9379,2.9356,2.9343,2.9332,2.9482,2.9483,2.9483,0,0,2.9372,2.9378,2.9345,2.9349,2.9356,2.9375,2.9367,2.9382,2.939,2.9359,2.9397,2.9381,2.9357,2.9359,2.9356,2.927,2.9299,2.9265,2.921,2.9185,2.9174,2.9165,2.9135,2.9124,2.9259,2.9258,2.9258,0,2.9316,2.929,2.9324,2.93,2.9296,2.9344,2.931,2.9312,2.9314,2.9311,2.9337,2.9308,2.9314,2.9272,2.9252,2.9248,2.924,2.9264,2.9173,2.9164,2.9156,2.9128,2.9117,2.9254,2.9255,2.9255,2.9256,0,2.9222,2.9204,2.9176,2.9179,2.9173,2.9143,2.9172,2.9162,2.9185,2.92,2.9169,2.9178,2.917,2.9161,2.9183,2.9123,2.9137,2.9167,2.9212,2.9138,2.9113,2.9102,2.9248,2.925,2.9251,2.9252,0,0,2.9086,2.911,2.91,2.9103,2.9115,2.9101,2.9074,2.9068,2.9059,2.9059,2.9038,2.9017,2.9046,2.9043,2.9065,2.9043,2.8976,2.9076,2.9077,2.9058,2.8912,2.889,2.8877,2.8995,2.8994,2.8992,2.8912,0,2.9002,2.8959,2.899,2.8942,2.8926,2.8971,2.8949,2.8953,2.8967,2.8955,2.8971,2.8956,2.8994,2.8993,2.8973,2.8988,2.8947,2.8994,2.8976,2.8975,2.8974,2.8863,2.8839,2.8763,2.8902,2.89,2.8899,0,2.8898,2.8896,2.8847,2.8864,2.8859,2.8837,2.8835,2.8823,2.883,2.8842,2.884,2.8868,2.8843,2.8888,2.8854,2.8886,2.888,2.8886,2.8884,2.8884,2.8933,2.8861,2.8739,2.8728,2.8883,2.8885,2.8886,0,2.8805,2.879,2.876,2.876,2.8779,2.8764,2.8771,2.878,2.8775,2.8773,2.877,2.8764,2.876,2.8755,2.8781,2.8811,2.8745,2.8791,2.8754,2.8753,2.8738,2.8739,2.8615,2.8733,2.8733,2.8733,2.8734,0,2.8708,2.8677,2.8719,2.87,2.8666,2.8701,2.8666,2.8678,2.8686,2.867,2.8708,2.8692,2.8728,2.8715,2.8735,2.8705,2.8703,2.8712,2.8718,2.8709,2.8708,2.8706,2.8712,2.873,2.8731,2.8732,2.8732,0,2.86,2.8627,2.8596,2.8618,2.8622,2.8597,2.8615,2.8598,2.8615,2.8595,2.8592,2.8619,2.8606,2.8632,2.8622,2.8636,2.8594,2.8607,2.8592,2.8596,2.8559,2.8562,2.843,2.8415,2.8541,2.854,2.8539,0,2.8537,2.8514,2.8534,2.8526,2.8532,2.8519,2.8515,2.8549,2.8543,2.855,2.8532,2.8523,2.8518,2.8496,2.8514,2.8507,2.8521,2.8476,2.852,2.8513,2.8522,2.8524,2.8522,2.8466,2.8465,2.8463,2.8462,0,2.8422,2.8437,2.843,2.8428,2.8423,2.8422,2.8424,2.8416,2.8452,2.8443,2.8432,2.8428,2.8419,2.841,2.8408,2.8415,2.8444,2.8448,2.844,2.8431,2.8423,2.8428,2.8568,2.8451,2.8452,2.8453,2.8454,2.8454,2.8335,2.8318,2.833,2.8321,2.8327,2.8328,2.8314,2.8331,2.8323,2.8319,2.8339,2.8324,2.8332,2.8333,2.8336,2.8325,2.8345,2.8332,2.8329,2.8326,2.832,2.8425,2.8324,2.8324,2.8325,2.8325,2.8325,0,2.8224,2.8234,2.8226,2.8229,2.8222,2.8253,2.8257,2.8249,2.8236,2.8242,2.8237,2.8224,2.8216,2.8234,2.8229,2.8216,2.8229,2.8213,2.8215,2.8216,2.8301,2.831,2.8202,2.8202,2.8202,2.8202,2.8202,2.8202,2.8165,2.8138,2.8154,2.813,2.8141,2.8127,2.8127,2.8129,2.8135,2.812,2.8114,2.8126,2.8137,2.8133,2.8127,2.8132,2.8129,2.8108,2.8118,2.8198,2.821,2.8221,2.823,2.8107,2.8107,2.8035,2.8034,2.8033]}]]